Regional Weather Roundup
Issued by NWS

Home | Current Version | Previous Version | Graphics & Text | Print | Product List | Glossary On
Versions: 1 2 3 4 5 6 7 8 9 10 11 12 13 14 15 16 17 18 19 20 21 22 23 24 25 26 27 28 29 30 31 32 33 34 35 36 37 38 39 40 41 42 43 44 45 46 47 48 49 50
000
ASUS43 KBIS 280402
RWRND

NORTH DAKOTA REGIONAL WEATHER ROUNDUP
NATIONAL WEATHER SERVICE BISMARCK ND
1100 PM CDT SAT AUG 27 2016

NOTE: "FAIR" INDICATES FEW OR NO CLOUDS BELOW 12,000 FEET WITH NO
SIGNIFICANT WEATHER AND/OR OBSTRUCTIONS TO VISIBILITY.


NDZ001>003-009>011-017-280500-
NORTHWEST NORTH DAKOTA

CITY           SKY/WX    TMP DP  RH WIND       PRES   REMARKS
WILLISTON      CLEAR     72  45  37 SE7       29.81R
MINOT          CLEAR     62  49  62 SE8       29.88R
MINOT AFB      CLEAR     57  46  66 SE5       29.86S
$$

NDZ018>021-031>035-040>046-280500-
SOUTHWEST NORTH DAKOTA

CITY           SKY/WX    TMP DP  RH WIND       PRES   REMARKS
BISMARCK       CLEAR     61  53  75 SE6       29.92R
DICKINSON      CLEAR     60  44  55 S9        29.87S
GARRISON         N/A     61  53  75 CALM      29.89R
HETTINGER ARPT CLEAR     66  50  56 SE7       29.92R
$$

NDZ004>008-012>016-024-026-027-054-280500-
NORTHEAST NORTH DAKOTA

CITY           SKY/WX    TMP DP  RH WIND       PRES   REMARKS
GRAND FORKS    CLEAR     57  54  89 S5        29.95S
GRND FRKS AFB  CLEAR     56  55  94 SW3       29.95S
DEVILS LAKE    CLEAR     64  59  83 SE10      29.96R
$$

NDZ022-023-025-028>030-036>039-047>053-280500-
SOUTHEAST NORTH DAKOTA

CITY           SKY/WX    TMP DP  RH WIND       PRES   REMARKS
FARGO          PTCLDY    64  58  80 SE9       29.98S
JAMESTOWN      CLEAR     61  59  93 SE6       29.95R
$$




USA.gov is the U.S. government's official web portal to all federal, state and local government web resources and services.